1537740000.69,41497,14.75,73008.3,5.57,4.67,4.67,0,*75
1537740001.92,41498,14.81,73086.3,5.53,4.71,4.63,0,*7D
1537740003.17,41499,14.81,73018.8,5.51,4.71,4.59,0,*77
1537740004.34,41500,14.75,73002.8,5.53,4.81,4.85,0,*7A
1537740005.6,41501,14.75,73002.8,5.57,4.67,4.75,0,*78
1537740006.82,41502,14.75,73040.5,5.53,4.59,4.63,0,*75
1537740008.06,41503,14.75,73060.0,5.53,4.71,4.71,0,*7D
1537740009.22,41504,14.75,73042.5,5.53,4.81,4.81,0,*7A
1537740010.39,41505,14.75,73086.8,5.53,4.85,4.85,0,*7B
1537740011.56,41506,14.75,73106.3,5.53,4.85,4.85,0,*78
1537740012.73,41507,14.81,73130.8,5.53,4.85,4.85,0,*79
1537740013.9,41508,14.75,73166.0,5.53,4.85,4.85,0,*76
1537740015.07,41509,14.81,73130.3,5.53,4.85,4.89,0,*7B
1537740016.24,41510,14.75,73074.3,5.53,4.89,4.89,0,*7F
1537740017.41,41511,14.75,73096.0,5.53,4.89,4.85,0,*72
1537740018.59,41512,14.75,73122.3,5.53,4.89,4.85,0,*71
1537740019.76,41513,14.75,73134.3,5.53,4.89,4.89,0,*7C
1537740020.95,41514,14.75,73146.3,5.53,4.97,4.89,0,*74
1537740022.21,41515,14.75,73146.3,5.57,4.93,5.01,0,*74
1537740023.46,41516,14.75,73128.8,5.57,5.01,5.05,0,*79
1537740024.72,41517,14.75,73094.5,5.57,5.01,4.93,0,*76
1537740025.98,41518,14.75,73102.0,5.57,5.01,5.01,0,*73
1537740027.21,41519,14.75,73132.8,5.59,5.01,4.93,0,*76
1537740028.45,41520,14.75,73112.8,5.59,5.05,5.01,0,*72
1537740029.63,41521,14.75,73110.3,5.59,5.11,5.11,0,*77
1537740030.86,41522,14.75,73096.5,5.59,5.05,5.05,0,*74
1537740032.09,41523,14.75,73114.0,5.59,5.05,5.05,0,*75
1537740033.33,41524,14.81,73116.3,5.59,4.93,5.01,0,*78
1537740034.56,41525,14.75,73138.5,5.59,5.05,5.05,0,*73
1537740035.77,41526,14.75,73108.8,5.59,5.05,5.11,0,*75
1537740037.0,41527,14.75,73128.3,5.59,5.05,5.05,0,*71
1537740038.23,41528,14.75,73130.5,5.57,5.11,5.01,0,*71
1537740039.43,41529,14.75,73132.8,5.61,5.15,5.07,0,*77
1537740040.63,41530,14.75,73128.3,5.61,5.07,5.07,0,*7C
1537740041.83,41531,14.75,73136.5,5.61,5.15,5.15,0,*7D
1537740043.05,41532,14.75,73150.0,5.61,5.19,5.27,0,*73
1537740044.28,41533,14.75,73150.3,5.61,5.19,5.27,0,*72
1537740045.47,41534,14.75,73138.8,5.61,5.15,5.15,0,*78
1537740046.68,41535,14.75,73142.8,5.61,5.19,5.19,0,*79
1537740047.89,41536,14.75,73146.8,5.63,5.27,5.27,0,*78
1537740049.09,41537,14.75,73136.8,5.61,5.15,5.19,0,*77
1537740050.29,41538,14.75,73116.0,5.61,5.19,5.15,0,*78
1537740051.49,41539,14.75,73118.0,5.61,5.19,5.15,0,*79
1537740052.67,41540,14.75,73096.0,5.63,5.15,5.07,0,*7A
1537740053.9,41541,14.75,73102.8,5.63,5.05,4.97,0,*72
1537740055.15,41542,14.75,73080.8,5.61,4.97,4.93,0,*7D
1537740056.38,41543,14.75,73062.8,5.63,4.93,4.97,0,*7E
1537740057.6,41544,14.75,73042.0,5.61,4.93,4.81,0,*7C
1537740058.83,41545,14.75,73012.8,5.61,4.89,4.93,0,*75
1537740060.06,41546,14.75,73004.5,5.61,4.89,4.93,0,*76
1537740061.25,41547,14.75,73026.8,5.61,4.89,4.81,0,*74
1537740062.44,41548,14.75,73044.3,5.61,4.89,4.89,0,*73
1537740063.61,41549,14.75,72994.8,5.63,4.81,4.89,0,*78
1537740064.81,41550,14.75,72994.8,5.61,4.89,4.89,0,*7A
1537740066.0,41551,14.75,73010.0,5.61,4.89,4.89,0,*7B
1537740067.23,41552,14.75,73006.3,5.61,4.89,4.93,0,*73
1537740068.46,41553,14.75,73000.8,5.61,4.89,4.93,0,*72
1537740069.65,41554,14.75,73006.5,5.63,4.79,4.81,0,*7B
1537740070.9,41555,14.75,73074.5,5.61,4.79,4.79,0,*7F
1537740072.13,41556,14.75,73108.3,5.59,4.75,4.79,0,*7B
1537740073.38,41557,14.75,73114.5,5.61,4.93,4.97,0,*79
1537740074.63,41558,14.81,73054.5,5.61,4.93,4.93,0,*72
1537740075.8,41559,14.75,73032.3,5.63,4.81,4.89,0,*79
1537740077.0,41560,14.75,73110.0,5.61,4.89,4.89,0,*79
1537740078.21,41561,14.75,73138.3,5.61,4.79,4.81,0,*7F
1537740079.47,41562,14.75,73112.8,5.61,4.93,4.93,0,*7B
1537740080.69,41563,14.75,73112.0,5.61,4.89,4.93,0,*71
1537740081.95,41564,14.75,73148.3,5.61,4.97,4.97,0,*7D
1537740083.2,41565,14.75,73074.5,5.61,4.93,4.97,0,*78
1537740084.37,41566,14.75,73092.3,5.63,4.89,4.89,0,*7D
1537740085.6,41567,14.75,73104.5,5.61,4.89,4.93,0,*75
1537740086.85,41568,14.75,73138.3,5.61,4.97,5.05,0,*7B
1537740088.08,41569,14.75,73164.3,5.61,5.05,5.07,0,*72
1537740089.3,41570,14.75,73054.0,5.61,5.07,5.05,0,*7A
1537740090.52,41571,14.75,73050.0,5.63,5.05,5.05,0,*7B
1537740091.78,41572,14.75,73056.0,5.61,4.97,4.97,0,*7A
1537740093.03,41573,14.75,73136.8,5.61,5.05,4.97,0,*71
1537740094.23,41574,14.75,73146.0,5.61,5.07,5.07,0,*7C
1537740095.48,41575,14.75,73284.8,5.61,4.93,4.93,0,*7D
1537740096.74,41576,14.75,73232.5,5.61,4.97,4.93,0,*7A
1537740097.99,41577,14.75,73172.3,5.61,4.97,4.97,0,*7F
1537740099.22,41578,14.75,73138.5,5.63,4.93,4.93,0,*72
1537740100.47,41579,14.75,73128.5,5.61,4.97,5.05,0,*7B
1537740101.72,41580,14.75,73142.5,5.61,4.93,4.93,0,*77
1537740102.95,41581,14.75,73170.8,5.61,4.89,4.93,0,*7D
1537740104.2,41582,14.75,73172.5,5.61,4.97,5.05,0,*7F
1537740105.45,41583,14.75,73152.5,5.61,5.05,5.05,0,*74
1537740106.67,41584,14.75,73124.0,5.63,4.97,5.05,0,*7B
1537740107.87,41585,14.75,73100.8,5.63,5.07,5.05,0,*72
1537740109.1,41586,14.75,73086.3,5.67,5.01,5.01,0,*77
1537740110.33,41587,14.75,73080.8,5.63,4.97,4.97,0,*72
1537740111.56,41588,14.75,73066.3,5.63,4.93,4.97,0,*79
1537740112.81,41589,14.75,73102.3,5.61,4.97,4.93,0,*7A
1537740113.99,41590,14.75,73080.3,5.63,4.89,4.89,0,*74
1537740115.18,41591,14.75,73116.0,5.61,4.89,4.89,0,*77
1537740116.38,41592,14.75,73156.5,5.63,4.79,4.89,0,*79
1537740117.61,41593,14.75,73108.0,5.63,4.97,4.97,0,*77
1537740118.86,41594,14.75,73152.0,5.61,4.97,4.97,0,*72
1537740120.06,41595,14.75,73068.8,5.61,5.07,5.07,0,*73
1537740121.31,41596,14.75,73130.0,5.61,4.97,4.97,0,*70
1537740122.54,41597,14.75,73100.3,5.67,5.01,5.01,0,*77
1537740123.77,41598,14.75,73122.5,5.63,4.93,4.97,0,*78
1537740125.0,41599,14.75,73088.5,5.63,4.97,4.93,0,*79
1537740126.23,41600,14.75,73080.3,5.63,4.97,4.97,0,*7E
1537740127.46,41601,14.75,73098.5,5.63,4.93,4.93,0,*7F
1537740128.71,41602,14.75,73090.8,5.61,4.93,4.93,0,*7E
1537740129.94,41603,14.75,73130.0,5.63,4.93,4.93,0,*7D
1537740131.13,41604,14.75,73154.3,5.61,4.81,4.81,0,*78
1537740132.33,41605,14.75,73152.5,5.61,4.89,4.89,0,*79
1537740133.58,41606,14.75,73150.5,5.61,4.97,4.97,0,*7A
1537740134.81,41607,14.75,73168.3,5.63,4.97,4.97,0,*79
1537740136.06,41608,14.75,73176.0,5.61,4.97,4.97,0,*74
1537740137.26,41609,14.75,73182.0,5.61,5.07,5.07,0,*75
1537740138.44,41610,14.75,73188.5,5.63,5.07,5.15,0,*7C
1537740139.61,41611,14.75,73192.8,5.63,5.15,5.15,0,*7E
1537740140.78,41612,14.75,73194.8,5.63,5.15,5.15,0,*7D
1537740141.96,41613,14.75,73188.0,5.63,5.07,5.07,0,*7C
1537740143.14,41614,14.75,73194.8,5.63,5.07,5.07,0,*7B
1537740144.31,41615,14.75,73168.8,5.67,5.15,5.15,0,*7E
1537740145.49,41616,14.75,73180.3,5.67,5.23,5.19,0,*74
1537740146.69,41617,14.75,73188.5,5.69,5.11,5.19,0,*7A
1537740147.87,41618,14.75,73188.0,5.67,5.11,5.19,0,*7B
1537740149.05,41619,14.75,73186.3,5.67,5.11,5.19,0,*7A
1537740150.23,41620,14.75,73178.8,5.67,5.11,5.19,0,*70
1537740151.4,41621,14.75,73174.3,5.67,5.07,5.07,0,*79
1537740152.58,41622,14.75,73152.3,5.67,5.07,5.11,0,*7D
1537740153.76,41623,14.75,73148.8,5.67,5.19,5.19,0,*7B
1537740154.94,41624,14.75,73158.3,5.67,5.19,5.19,0,*7C
1537740156.14,41625,14.75,73122.3,5.69,5.11,5.15,0,*77
1537740157.4,41626,14.75,73134.8,5.69,5.01,5.01,0,*70
1537740158.63,41627,14.75,73128.3,5.67,4.97,4.97,0,*7F
1537740159.88,41628,14.75,73182.8,5.69,5.01,5.01,0,*7E
1537740161.11,41629,14.75,73076.3,5.67,4.97,4.93,0,*75
1537740162.35,41630,14.75,73084.3,5.67,4.71,4.75,0,*7D
1537740163.58,41631,14.75,73104.0,5.63,4.67,4.71,0,*7B
1537740164.77,41632,14.75,73098.5,5.63,4.81,4.79,0,*78
1537740166.0,41633,14.75,73094.8,5.67,4.93,4.93,0,*7A
1537740167.23,41634,14.75,73044.8,5.67,4.93,4.93,0,*7D
1537740168.43,41635,14.75,73056.0,5.67,4.85,4.93,0,*7B
1537740169.66,41636,14.75,73150.5,5.67,4.93,4.93,0,*7F
1537740170.86,41637,14.75,73168.8,5.67,4.93,4.85,0,*79
1537740172.09,41638,14.75,73118.8,5.67,4.63,4.63,0,*71
1537740173.31,41639,14.75,73140.5,5.63,4.59,4.59,0,*74
1537740174.54,41640,14.75,73152.8,5.63,4.59,4.59,0,*7A
1537740175.77,41641,14.75,73156.8,5.63,4.71,4.59,0,*71
1537740176.97,41642,14.75,73178.8,5.63,4.59,4.57,0,*76
1537740178.14,41643,14.75,73158.0,5.63,4.45,4.49,0,*75
1537740179.32,41644,14.75,73054.0,5.67,4.37,4.41,0,*7B
1537740180.54,41645,14.75,73060.3,5.63,4.67,4.59,0,*72
1537740181.79,41646,14.75,73076.3,5.61,4.67,4.79,0,*71
1537740183.01,41647,14.75,73082.8,5.63,4.79,4.79,0,*7D
1537740184.21,41648,14.75,73094.5,5.61,4.89,4.89,0,*70
1537740185.4,41649,14.75,73104.8,5.61,4.89,4.89,0,*71
1537740186.63,41650,14.75,73110.5,5.63,4.79,4.79,0,*7B
1537740187.86,41651,14.75,73108.3,5.67,4.71,4.63,0,*7D
1537740189.11,41652,14.75,73110.8,5.61,4.79,4.67,0,*74
1537740190.33,41653,14.75,73122.3,5.61,4.81,4.79,0,*7D
1537740191.53,41654,14.75,73130.5,5.63,4.89,4.79,0,*70
1537740192.7,41655,14.75,73118.3,5.63,4.89,4.81,0,*76
1537740193.93,41656,14.75,73092.5,5.63,4.79,4.79,0,*7D
1537740195.16,41657,14.75,73090.8,5.63,4.71,4.67,0,*7B
1537740196.41,41658,14.75,73060.5,5.61,4.59,4.59,0,*71
1537740197.6,41659,14.75,73054.8,5.61,4.45,4.37,0,*75
1537740198.8,41660,14.75,73040.0,5.61,4.49,4.45,0,*76
1537740200.0,41661,14.75,73040.8,5.57,4.53,4.53,0,*7E
1537740201.25,41662,14.75,73034.3,5.61,4.59,4.59,0,*78
1537740202.49,41663,14.75,72996.5,5.61,4.67,4.59,0,*74
1537740203.72,41664,14.75,73012.8,5.59,4.63,4.63,0,*75
1537740204.95,41665,14.75,73066.8,5.59,4.63,4.75,0,*73
1537740206.18,41666,14.75,73052.3,5.59,4.67,4.67,0,*77
1537740207.41,41667,14.75,73098.8,5.59,4.75,4.75,0,*76
1537740208.61,41668,14.75,73110.8,5.61,4.89,4.89,0,*72
1537740209.8,41669,14.75,73120.5,5.61,4.81,4.81,0,*73
1537740211.02,41670,14.75,73152.3,5.59,4.79,4.79,0,*70
1537740212.23,41671,14.75,73164.3,5.59,4.85,4.79,0,*72
1537740213.4,41672,14.75,73116.3,5.59,4.85,4.85,0,*72
1537740214.6,41673,14.75,73124.3,5.59,4.79,4.85,0,*70
1537740215.78,41674,14.75,73130.8,5.59,4.85,4.85,0,*74
1537740216.97,41675,14.75,73132.0,5.61,4.81,4.89,0,*76
1537740218.17,41676,14.75,73150.0,5.61,4.89,4.89,0,*7D
1537740219.39,41677,14.75,73124.5,5.61,4.93,4.89,0,*77
1537740220.61,41678,14.75,73012.8,5.61,4.93,4.89,0,*78
1537740221.84,41679,14.75,72896.0,5.63,4.71,4.71,0,*70
1537740223.04,41680,14.75,72932.5,5.61,4.57,4.57,0,*74
1537740224.25,41681,14.75,73004.5,5.63,4.59,4.57,0,*79
1537740225.5,41682,14.75,72996.8,5.61,4.79,4.71,0,*7E
1537740226.75,41683,14.75,72888.5,5.61,4.71,4.67,0,*70
1537740228.0,41684,14.75,73002.0,5.61,4.79,4.79,0,*70
1537740229.22,41685,14.75,73052.3,5.61,4.89,4.79,0,*7E
1537740230.42,41686,14.75,73082.5,5.61,4.89,4.81,0,*7A
1537740231.61,41687,14.75,73108.0,5.61,4.89,4.81,0,*7B
1537740232.79,41688,14.75,73084.0,5.59,4.89,4.89,0,*77
1537740234.02,41689,14.75,73042.0,5.59,4.93,4.93,0,*76
1537740235.25,41690,14.75,73102.0,5.59,4.93,4.93,0,*7E
1537740236.51,41691,14.75,73104.8,5.61,4.93,4.93,0,*74
1537740237.76,41692,14.75,73098.5,5.61,4.93,4.97,0,*73
1537740239.01,41693,14.75,73068.8,5.61,4.93,4.93,0,*76
1537740240.26,41694,14.75,73092.5,5.61,5.05,4.97,0,*7B
1537740241.52,41695,14.75,73126.5,5.61,4.93,4.97,0,*74
1537740242.77,41696,14.75,73128.3,5.61,4.97,4.97,0,*73
1537740244.0,41697,14.75,73146.0,5.63,4.97,4.97,0,*70
1537740245.23,41698,14.75,73118.5,5.63,5.05,4.93,0,*71
1537740246.46,41699,14.75,73114.0,5.63,5.05,4.97,0,*74
1537740247.66,41700,14.75,73108.8,5.63,5.07,5.05,0,*7D
1537740248.88,41701,14.75,73094.0,5.63,5.05,4.97,0,*74
1537740250.11,41702,14.75,73072.3,5.61,4.93,4.89,0,*74
1537740251.34,41703,14.75,73056.8,5.63,5.05,4.97,0,*76
1537740252.57,41704,14.75,73038.5,5.67,4.93,4.93,0,*7F
1537740253.79,41705,14.75,73074.3,5.63,4.97,4.93,0,*7E
1537740255.02,41706,14.75,73046.3,5.67,4.97,4.97,0,*7D
1537740256.24,41707,14.75,73092.8,5.61,4.81,4.79,0,*7D
1537740257.42,41708,14.75,73032.8,5.63,4.89,4.89,0,*77
1537740258.61,41709,14.75,73052.5,5.63,4.81,4.79,0,*71
1537740259.81,41710,14.75,72978.8,5.63,4.81,4.79,0,*79
1537740261.06,41711,14.75,72964.3,5.61,4.79,4.67,0,*72
1537740262.28,41712,14.75,73058.3,5.61,4.79,4.81,0,*79
1537740263.45,41713,14.75,73102.0,5.63,4.81,4.81,0,*7D
1537740264.67,41714,14.75,73120.5,5.63,4.97,4.97,0,*7A
1537740265.87,41715,14.75,73144.5,5.61,5.07,5.07,0,*79
1537740267.1,41716,14.75,73128.5,5.63,5.05,5.05,0,*78
1537740268.28,41717,14.75,73144.8,5.63,5.07,5.07,0,*79
1537740269.46,41718,14.75,73166.3,5.63,5.07,5.07,0,*76
1537740270.65,41719,14.75,73174.0,5.63,5.07,5.05,0,*75
1537740271.83,41720,14.75,73194.0,5.63,5.07,5.15,0,*7E
1537740273.0,41721,14.75,73168.8,5.63,5.15,5.15,0,*7C
1537740274.18,41722,14.75,73162.5,5.63,5.07,5.07,0,*7F
1537740275.38,41723,14.75,73150.3,5.67,5.07,4.97,0,*72
1537740276.6,41724,14.75,73140.3,5.67,4.97,4.93,0,*79
1537740277.83,41725,14.75,73164.5,5.67,4.93,4.93,0,*7C
1537740279.06,41726,14.75,73160.5,5.67,5.01,4.97,0,*71
1537740280.32,41727,14.75,73152.3,5.61,4.93,4.93,0,*78
1537740281.55,41728,14.75,73148.5,5.63,4.97,4.97,0,*75
1537740282.75,41729,14.75,73154.8,5.63,4.97,5.07,0,*7C
1537740283.96,41730,14.75,73146.3,5.67,5.07,5.01,0,*7E
1537740285.19,41731,14.75,73160.0,5.67,4.97,5.01,0,*77
1537740286.39,41732,14.75,73168.0,5.67,5.07,5.01,0,*7C
1537740287.57,41733,14.75,73194.8,5.67,5.11,5.11,0,*7B
1537740288.75,41734,14.75,73172.8,5.67,5.19,5.19,0,*7C
1537740289.93,41735,14.75,73122.3,5.67,5.07,5.07,0,*7D
1537740291.13,41736,14.75,73110.5,5.67,5.07,5.01,0,*78
1537740292.31,41737,14.75,73122.3,5.67,5.11,5.07,0,*78
1537740293.49,41738,14.75,73142.3,5.67,5.07,5.11,0,*77
1537740294.71,41739,14.75,73144.3,5.71,5.05,5.05,0,*76
1537740295.89,41740,14.75,73126.8,5.67,5.11,5.11,0,*7F
1537740297.07,41741,14.75,73128.8,5.67,5.11,5.07,0,*79
1537740298.3,41742,14.75,73104.8,5.69,5.05,5.11,0,*76
1537740299.55,41743,14.75,73086.8,5.69,5.01,5.01,0,*72
1537740300.78,41744,14.75,73076.0,5.67,4.97,4.97,0,*7B
1537740302.03,41745,14.75,73132.8,5.69,4.97,4.97,0,*74
1537740303.28,41746,14.75,73098.5,5.69,4.97,4.97,0,*77
1537740304.54,41747,14.75,73112.5,5.69,5.01,5.01,0,*76
1537740305.79,41748,14.75,73144.0,5.69,5.01,4.97,0,*77
1537740306.99,41749,14.75,73056.8,5.67,4.85,4.93,0,*71
1537740308.17,41750,14.75,73090.0,5.67,4.81,4.85,0,*7A
1537740309.39,41751,14.75,73130.8,5.67,4.75,4.75,0,*7F
1537740310.62,41752,14.75,73122.5,5.67,4.93,4.93,0,*7C
1537740311.85,41753,14.75,73160.3,5.67,4.93,4.93,0,*7D
1537740313.03,41754,14.75,73154.3,5.67,4.85,4.85,0,*7A
1537740314.25,41755,14.75,73178.5,5.67,5.05,4.97,0,*71
1537740315.48,41756,14.75,73154.8,5.67,4.97,4.93,0,*7C
1537740316.68,41757,14.75,73130.3,5.67,4.93,4.85,0,*7E
1537740317.91,41758,14.75,73102.8,5.67,4.97,4.93,0,*72
1537740319.14,41759,14.75,73084.5,5.67,4.97,4.93,0,*73
1537740320.32,41760,14.75,73118.0,5.67,5.07,5.07,0,*7D
1537740321.57,41761,14.75,73138.5,5.69,5.05,5.05,0,*72
1537740322.82,41762,14.75,73178.5,5.69,5.05,5.05,0,*71
1537740324.01,41763,14.75,73184.0,5.67,5.07,5.05,0,*7C
1537740325.19,41764,14.75,73162.0,5.67,5.07,5.07,0,*79
1537740326.37,41765,14.75,73172.5,5.67,5.11,5.11,0,*78
1537740327.57,41766,14.75,73178.3,5.69,5.15,5.23,0,*70
1537740328.75,41767,14.75,73154.8,5.67,5.19,5.19,0,*7A
1537740329.95,41768,14.75,73146.5,5.69,5.11,5.11,0,*7B
1537740331.18,41769,14.75,73174.0,5.69,5.11,5.05,0,*7F
1537740332.43,41770,14.75,73172.5,5.69,5.01,5.01,0,*72
1537740333.69,41771,14.75,73156.3,5.69,5.01,5.01,0,*73
1537740334.94,41772,14.75,73168.3,5.69,4.97,4.97,0,*70
1537740336.13,41773,14.75,73160.3,5.69,4.85,4.85,0,*71
1537740337.35,41774,14.75,73152.5,5.69,4.93,4.89,0,*7D
1537740338.58,41775,14.75,73154.8,5.67,4.93,4.93,0,*79
1537740339.81,41776,14.75,73184.3,5.67,4.97,4.97,0,*7A
1537740341.07,41777,14.75,73192.5,5.69,5.01,5.01,0,*75
1537740342.3,41778,14.75,73128.3,5.67,4.97,4.97,0,*74
1537740343.49,41779,14.75,73096.8,5.69,4.89,4.89,0,*7B
1537740344.71,41780,14.75,73092.3,5.69,4.85,4.79,0,*7E
1537740345.94,41781,14.75,73108.8,5.67,4.75,4.71,0,*76
1537740347.17,41782,14.75,73110.5,5.67,4.75,4.71,0,*75
1537740348.37,41783,14.75,73076.0,5.69,4.85,4.85,0,*7E
1537740349.6,41784,14.75,73106.5,5.67,4.71,4.71,0,*77
1537740350.83,41785,14.75,73132.3,5.67,4.63,4.63,0,*76
1537740352.05,41786,14.75,73130.3,5.69,4.79,4.85,0,*78
1537740353.29,41787,14.75,73046.3,5.69,4.79,4.79,0,*7A
1537740354.53,41788,14.75,73066.8,5.67,4.71,4.71,0,*7B
1537740355.75,41789,14.75,73068.3,5.67,4.59,4.59,0,*7A
1537740356.96,41790,14.75,73094.3,5.63,4.59,4.57,0,*78
1537740358.15,41791,14.75,73088.8,5.63,4.57,4.59,0,*79
1537740359.38,41792,14.75,73120.3,5.63,4.67,4.67,0,*74
1537740360.61,41793,14.75,73092.0,5.63,4.71,4.67,0,*72
1537740361.84,41794,14.75,73102.8,5.63,4.59,4.67,0,*7F
1537740363.06,41795,14.75,73088.3,5.63,4.59,4.59,0,*73
1537740364.31,41796,14.75,73080.5,5.61,4.59,4.59,0,*72
1537740365.51,41797,14.75,73082.3,5.63,4.57,4.67,0,*72
1537740366.67,41798,14.75,73096.0,5.67,4.49,4.49,0,*7A
1537740367.87,41799,14.75,73130.8,5.61,4.49,4.57,0,*72
1537740369.12,41800,14.75,73154.3,5.61,4.59,4.59,0,*72
1537740370.37,41801,14.75,73150.0,5.61,4.79,4.71,0,*7B
1537740371.57,41802,14.75,73168.0,5.63,4.81,4.79,0,*75
1537740372.76,41803,14.75,73164.3,5.61,4.89,4.89,0,*71
1537740374.02,41804,14.75,73184.0,5.61,4.71,4.79,0,*7E
1537740375.21,41805,14.75,73186.5,5.61,4.89,4.81,0,*7F
1537740376.44,41806,14.75,73184.3,5.63,4.93,4.93,0,*76
1537740377.67,41807,14.75,73178.5,5.63,4.93,4.93,0,*77
1537740378.92,41808,14.75,73158.5,5.61,4.93,4.93,0,*7A
1537740380.17,41809,14.75,73166.0,5.61,4.93,4.93,0,*7B
1537740381.43,41810,14.75,73162.8,5.61,4.71,4.71,0,*73
1537740382.66,41811,14.75,73168.5,5.63,4.79,4.71,0,*78
1537740383.88,41812,14.75,73178.8,5.61,4.81,4.79,0,*76
1537740385.08,41813,14.75,73182.0,5.61,4.89,4.89,0,*70
1537740386.31,41814,14.75,73174.8,5.63,4.97,4.93,0,*71
1537740387.54,41815,14.75,73168.8,5.63,4.93,4.93,0,*74
1537740388.73,41816,14.75,73164.8,5.61,4.89,4.81,0,*7D
1537740389.9,41817,14.75,73170.3,5.63,4.81,4.81,0,*76
1537740391.07,41818,14.75,73156.8,5.63,4.89,4.81,0,*71
1537740392.24,41819,14.75,73154.8,5.63,4.81,4.81,0,*78
1537740393.43,41820,14.75,73150.3,5.61,4.89,4.89,0,*70
1537740394.63,41821,14.75,73136.8,5.61,4.89,4.89,0,*71
1537740395.89,41822,14.75,73160.3,5.61,4.71,4.71,0,*72
1537740397.13,41823,14.75,73162.8,5.61,4.79,4.79,0,*73
1537740398.39,41824,14.75,73154.8,5.61,4.71,4.79,0,*7C
1537740399.61,41825,14.75,73166.3,5.61,4.81,4.79,0,*72
1537740400.8,41826,14.75,73154.8,5.61,4.81,4.81,0,*76
1537740402.05,41827,14.75,73166.0,5.61,4.79,4.79,0,*77
1537740403.24,41828,14.75,73186.3,5.61,4.89,4.89,0,*78
1537740404.46,41829,14.75,73170.8,5.61,4.79,4.81,0,*7E
1537740405.72,41830,14.75,73098.5,5.61,4.71,4.71,0,*71
1537740406.92,41831,14.75,73058.3,5.61,4.57,4.57,0,*70
1537740408.11,41832,14.75,73104.5,5.61,4.45,4.45,0,*73
1537740409.33,41833,14.75,73100.0,5.61,4.59,4.49,0,*73
1537740410.54,41834,14.75,73078.8,5.61,4.37,4.37,0,*75
1537740411.73,41835,14.75,73032.3,5.61,4.45,4.45,0,*74
1537740412.91,41836,14.75,73018.5,5.59,4.57,4.49,0,*73
1537740414.15,41837,14.75,73020.8,5.61,4.67,4.67,0,*76
1537740415.38,41838,14.75,73028.8,5.59,4.75,4.67,0,*71
1537740416.61,41839,14.75,73042.0,5.59,4.67,4.67,0,*73
1537740417.84,41840,14.75,73084.5,5.59,4.75,4.75,0,*7D
1537740419.1,41841,14.75,73092.0,5.57,4.75,4.75,0,*72
1537740420.27,41842,14.75,73072.0,5.59,4.45,4.53,0,*78
1537740421.48,41843,14.75,73064.5,5.57,4.53,4.53,0,*70
1537740422.73,41844,14.75,73080.0,5.57,4.67,4.75,0,*74
1537740423.91,41845,14.75,73096.5,5.59,4.85,4.85,0,*78
1537740425.14,41846,14.75,73034.3,5.59,4.67,4.75,0,*78
1537740426.39,41847,14.75,73090.8,5.57,4.67,4.75,0,*77
1537740427.64,41848,14.75,73074.3,5.57,4.67,4.67,0,*7B
1537740428.89,41849,14.75,73066.0,5.57,4.79,4.79,0,*7A
1537740430.12,41850,14.75,73002.8,5.59,4.75,4.67,0,*7F
1537740431.35,41851,14.75,73018.8,5.59,4.79,4.79,0,*7D
1537740432.58,41852,14.75,72992.8,5.59,4.67,4.63,0,*7A
1537740433.81,41853,14.75,73002.3,5.59,4.63,4.63,0,*7F
1537740435.06,41854,14.75,72982.5,5.61,4.63,4.67,0,*77
1537740436.26,41855,14.75,72944.8,5.57,4.57,4.53,0,*73
1537740437.46,41856,14.75,72916.5,5.57,4.53,4.53,0,*74
1537740438.71,41857,14.75,72928.8,5.57,4.75,4.75,0,*75
1537740439.97,41858,14.75,72938.5,5.57,4.79,4.75,0,*76
1537740441.22,41859,14.75,72956.5,5.57,4.79,4.79,0,*7B
1537740442.45,41860,14.75,72960.5,5.59,4.79,4.75,0,*73
1537740443.7,41861,14.75,72978.3,5.57,4.75,4.63,0,*77
1537740444.96,41862,14.75,73026.0,5.57,4.75,4.75,0,*73
1537740446.16,41863,14.75,73030.5,5.59,4.85,4.79,0,*7F
1537740447.42,41864,14.75,73054.3,5.57,4.75,4.75,0,*75
1537740448.61,41865,14.75,73086.5,5.57,4.85,4.85,0,*74
1537740449.84,41866,14.75,73088.8,5.59,4.67,4.67,0,*79
1537740451.1,41867,14.75,73098.5,5.57,4.79,4.75,0,*7A
1537740452.3,41868,14.75,73060.8,5.57,4.45,4.45,0,*79
1537740453.55,41869,14.75,73016.0,5.57,4.63,4.67,0,*7C
1537740454.8,41870,14.75,73052.0,5.57,4.75,4.67,0,*73
1537740456.05,41871,14.75,73162.8,5.57,4.75,4.75,0,*71
1537740457.28,41872,14.75,73188.3,5.59,3.11,1.97,0,*70
1537740458.51,41873,14.75,73138.3,5.53,3.67,3.71,0,*70
1537740459.67,41874,14.75,73108.8,5.53,4.15,4.19,0,*7C
1537740460.88,41875,14.75,73146.3,5.51,4.37,4.45,0,*76
1537740462.09,41876,14.75,73076.3,5.51,4.33,4.33,0,*70
1537740463.29,41877,14.75,73042.8,5.53,4.31,4.37,0,*75
1537740464.54,41878,14.75,73030.0,5.51,2.81,-0.23,0,*69
1537740465.75,41879,14.75,73068.0,5.45,2.91,2.81,0,*7B
1537740466.94,41880,14.75,73042.5,5.43,4.19,4.19,0,*7A
1537740468.14,41881,14.75,73140.3,5.43,4.41,4.49,0,*73
1537740469.32,41882,14.75,73150.8,5.41,4.57,4.57,0,*7A
1537740470.58,41883,14.75,73128.3,5.43,4.71,4.71,0,*79
1537740471.75,41884,14.75,73078.3,5.41,4.57,4.49,0,*73
1537740472.95,41885,14.75,73106.8,5.43,4.49,4.53,0,*74
1537740474.12,41886,14.75,73108.0,5.49,4.57,4.57,0,*76
1537740475.34,41887,14.75,73096.3,5.49,4.63,4.67,0,*73
1537740476.52,41888,14.75,73048.8,5.45,4.53,4.57,0,*70
1537740477.72,41889,14.75,73110.0,5.49,4.57,4.63,0,*7E
1537740478.95,41890,14.75,73144.8,5.45,4.75,4.75,0,*7D
1537740480.18,41891,14.75,73140.0,5.49,4.75,4.75,0,*70
1537740481.4,41892,14.75,73074.8,5.49,4.75,4.67,0,*70
1537740482.63,41893,14.75,73128.5,5.49,4.75,4.67,0,*71
1537740483.85,41894,14.75,73136.8,5.49,4.75,4.75,0,*75
1537740485.08,41895,14.75,73172.5,5.49,4.75,4.75,0,*74
1537740486.3,41896,14.75,73126.8,5.49,4.75,4.67,0,*74
1537740487.47,41897,14.75,73066.8,5.49,4.19,4.23,0,*7F
1537740488.7,41898,14.75,73012.0,5.45,4.31,4.31,0,*75
1537740489.9,41899,14.75,73046.5,5.45,4.57,4.63,0,*73
1537740491.13,41900,14.75,73088.8,5.49,4.75,4.67,0,*7A
1537740492.36,41901,14.75,73104.0,5.45,4.75,4.75,0,*74
1537740493.59,41902,14.75,73114.5,5.49,4.75,4.75,0,*7B
1537740494.81,41903,14.75,73134.3,5.49,4.75,4.67,0,*79
1537740496.04,41904,14.75,73148.3,5.49,4.67,4.75,0,*7E
1537740497.26,41905,14.75,73146.5,5.49,4.75,4.79,0,*70
1537740498.43,41906,14.75,73146.0,5.49,4.81,4.89,0,*77
1537740499.6,41907,14.75,73152.8,5.49,4.89,4.89,0,*7E
1537740500.82,41908,14.75,73152.0,5.49,4.79,4.79,0,*71
1537740502.05,41909,14.75,73134.8,5.45,4.75,4.75,0,*7C
1537740503.27,41910,14.75,73140.5,5.49,4.75,4.79,0,*74
1537740504.5,41911,14.75,73148.5,5.49,4.79,4.79,0,*79
1537740505.69,41912,14.75,73134.8,5.49,4.79,4.81,0,*7D
1537740506.89,41913,14.75,73134.0,5.51,4.81,4.85,0,*76
1537740508.08,41914,14.75,73126.5,5.51,4.81,4.81,0,*75
1537740509.31,41915,14.75,73138.5,5.51,4.81,4.79,0,*73
1537740510.51,41916,14.75,73142.0,5.51,4.81,4.85,0,*73
1537740511.71,41917,14.75,73164.5,5.51,4.81,4.81,0,*76
1537740512.9,41918,14.75,73148.3,5.51,4.81,4.81,0,*79
1537740514.13,41919,14.75,73136.0,5.51,4.67,4.57,0,*7B
1537740515.39,41920,14.75,73154.8,5.51,4.71,4.71,0,*72
1537740516.59,41921,14.75,73142.5,5.51,4.49,4.49,0,*73
1537740517.82,41922,14.75,73140.0,5.51,4.59,4.57,0,*7E
1537740519.07,41923,14.75,73154.5,5.51,4.67,4.67,0,*71
1537740520.27,41924,14.75,73136.3,5.49,4.41,4.31,0,*78
1537740521.47,41925,14.75,73150.8,5.51,4.23,4.33,0,*76
1537740522.73,41926,14.75,73160.0,5.51,4.67,4.67,0,*74
1537740523.93,41927,14.75,73150.8,5.51,4.57,4.57,0,*75
1537740525.15,41928,14.75,73144.8,5.49,4.75,4.67,0,*70
1537740526.38,41929,14.75,73118.0,5.49,4.75,4.75,0,*72
1537740527.63,41930,14.75,73050.8,5.51,4.79,4.79,0,*73
1537740528.89,41931,14.75,73066.5,5.51,4.71,4.67,0,*75
1537740530.12,41932,14.75,73074.0,5.53,4.71,4.63,0,*70
1537740531.38,41933,14.75,73086.0,5.51,4.71,4.79,0,*78